Location: Emory University Observatory
(33.7903°N, 84.3267°W)
Time: 22:24:55
(UTC-04:00)

Tiangong 2 - Pass Details

Date: 08 October 2017
Orbit: 388 x 391 km, 42.8° (Epoch: 22 October)

Event Time Altitude Azimuth Distance (km) Brightness Sun altitude
Exits shadow 05:50:48 39° 113° (ESE) 599 2.4 -22.8°
Drops below altitude 10° 05:53:18 10° 72° (ENE) 1,419 5.0 -22.3°
Sets 05:55:25 0° 66° (ENE) 2,277 6.3 -21.9°
